• In Netherlands
  • List of Countries
  • For 7 days
  • Water Temperature
  • Satellite Maps
  • Weather Map
  • Weather Widgets
  • user-avatar
    Login

    Hourly Weather Hasselt

    Today, 24 January, Tuesday

    Time Temperature Precipitation Wind Pressure Humidity
    00:00 -1°C° 0.1 mm 2 mps 766 mmHg 93%
    01:00 -1°C° 0.1 mm 2 mps 766 mmHg 94%
    02:00 +1°C° 0.1 mm 1 mps 766 mmHg 95%
    03:00 +1°C° 0.1 mm 1 mps 766 mmHg 96%
    04:00 +1°C° 0.1 mm 1 mps 766 mmHg 96%
    05:00 +1°C° 0.1 mm 1 mps 766 mmHg 96%
    06:00 +1°C° 0.1 mm 1 mps 766 mmHg 96%
    07:00 +1°C° 0.1 mm 1 mps 766 mmHg 96%
    08:00 +1°C° 0.1 mm 1 mps 766 mmHg 95%
    09:00 +2°C° 0.1 mm 1 mps 767 mmHg 95%
    10:00 +2°C° 0 mm 1 mps 767 mmHg 93%
    11:00 +3°C° 0 mm 1 mps 767 mmHg 92%
    12:00 +3°C° 0 mm 1 mps 767 mmHg 90%
    13:00 +2°C° 0 mm 0 mps 767 mmHg 92%
    14:00 +1°C° 0 mm 0 mps 767 mmHg 94%
    15:00 0°C° 0 mm 0 mps 767 mmHg 96%
    16:00 0°C° 0 mm 0 mps 767 mmHg 96%
    17:00 0°C° 0 mm 1 mps 768 mmHg 96%
    18:00 -1°C° 0 mm 1 mps 768 mmHg 96%
    19:00 -1°C° 0 mm 1 mps 768 mmHg 96%
    20:00 -1°C° 0 mm 1 mps 768 mmHg 96%
    21:00 -3°C° 0 mm 2 mps 768 mmHg 95%
    22:00 -4°C° 0 mm 2 mps 768 mmHg 95%
    23:00 -4°C° 0 mm 2 mps 768 mmHg 94%

    Tomorrow, 25 January, Wednesday

    Time Temperature Precipitation Wind Pressure Humidity
    00:00 -4°C° 0 mm 2 mps 768 mmHg 94%
    01:00 -2°C° 0 mm 1 mps 768 mmHg 93%
    02:00 -3°C° 0 mm 1 mps 768 mmHg 93%
    03:00 -3°C° 0 mm 1 mps 768 mmHg 92%
    04:00 -3°C° 0 mm 1 mps 768 mmHg 91%
    05:00 -3°C° 0 mm 1 mps 768 mmHg 91%
    06:00 -5°C° 0 mm 2 mps 768 mmHg 90%
    07:00 -5°C° 0 mm 2 mps 768 mmHg 87%
    08:00 -5°C° 0 mm 2 mps 769 mmHg 85%
    09:00 -4°C° 0 mm 2 mps 769 mmHg 83%
    10:00 -3°C° 0 mm 2 mps 768 mmHg 79%
    11:00 -2°C° 0 mm 3 mps 768 mmHg 76%
    12:00 -1°C° 0 mm 3 mps 768 mmHg 73%
    13:00 -1°C° 0 mm 3 mps 767 mmHg 75%
    14:00 -2°C° 0 mm 2 mps 767 mmHg 76%
    15:00 -2°C° 0 mm 2 mps 767 mmHg 78%
    16:00 -4°C° 0 mm 3 mps 767 mmHg 81%
    17:00 -4°C° 0 mm 3 mps 767 mmHg 84%
    18:00 -5°C° 0 mm 3 mps 767 mmHg 87%
    19:00 -5°C° 0 mm 3 mps 767 mmHg 87%
    20:00 -6°C° 0 mm 3 mps 767 mmHg 87%
    21:00 -6°C° 0 mm 3 mps 767 mmHg 87%
    22:00 -6°C° 0 mm 3 mps 767 mmHg 86%
    23:00 -5°C° 0 mm 2 mps 766 mmHg 86%

    Day after tomorrow, 26 January, Thursday

    Time Temperature Precipitation Wind Pressure Humidity
    00:00 -6°C° 0 mm 2 mps 766 mmHg 86%
    01:00 -6°C° 0 mm 2 mps 766 mmHg 86%
    02:00 -6°C° 0 mm 2 mps 766 mmHg 85%
    03:00 -6°C° 0 mm 2 mps 766 mmHg 85%
    04:00 -6°C° 0 mm 2 mps 765 mmHg 85%
    05:00 -7°C° 0 mm 3 mps 765 mmHg 85%
    06:00 -7°C° 0 mm 3 mps 765 mmHg 84%
    07:00 -7°C° 0 mm 3 mps 765 mmHg 82%
    08:00 -6°C° 0 mm 3 mps 765 mmHg 79%
    09:00 -6°C° 0 mm 3 mps 765 mmHg 77%
    10:00 -5°C° 0 mm 3 mps 765 mmHg 74%
    11:00 -2°C° 0 mm 3 mps 764 mmHg 70%
    12:00 -1°C° 0 mm 3 mps 764 mmHg 67%
    13:00 -1°C° 0 mm 3 mps 764 mmHg 69%
    14:00 -1°C° 0 mm 2 mps 763 mmHg 71%
    15:00 -1°C° 0 mm 2 mps 763 mmHg 73%
    16:00 -2°C° 0 mm 2 mps 763 mmHg 76%
    17:00 -4°C° 0 mm 3 mps 763 mmHg 78%
    18:00 -5°C° 0 mm 3 mps 763 mmHg 80%
    19:00 -5°C° 0 mm 3 mps 763 mmHg 80%
    20:00 -5°C° 0 mm 3 mps 762 mmHg 79%
    21:00 -5°C° 0 mm 3 mps 762 mmHg 78%
    22:00 -6°C° 0 mm 3 mps 762 mmHg 78%
    23:00 -6°C° 0 mm 3 mps 762 mmHg 79%

    27 January, Friday

    Time Temperature Precipitation Wind Pressure Humidity
    00:00 -5°C° 0 mm 2 mps 762 mmHg 79%
    01:00 -5°C° 0 mm 2 mps 761 mmHg 79%
    02:00 -5°C° 0 mm 2 mps 761 mmHg 80%
    03:00 -5°C° 0 mm 2 mps 761 mmHg 80%
    04:00 -5°C° 0 mm 2 mps 760 mmHg 80%
    05:00 -6°C° 0 mm 3 mps 760 mmHg 80%
    06:00 -6°C° 0 mm 3 mps 760 mmHg 80%
    07:00 -6°C° 0 mm 3 mps 760 mmHg 78%
    08:00 -5°C° 0 mm 3 mps 760 mmHg 75%
    09:00 -5°C° 0 mm 3 mps 760 mmHg 72%
    10:00 -2°C° 0 mm 3 mps 760 mmHg 71%
    11:00 0°C° 0 mm 3 mps 759 mmHg 69%
    12:00 +1°C° 0 mm 3 mps 759 mmHg 67%
    13:00 +1°C° 0 mm 3 mps 759 mmHg 70%
    14:00 0°C° 0 mm 4 mps 758 mmHg 73%
    15:00 +1°C° 0 mm 4 mps 758 mmHg 75%
    16:00 0°C° 0 mm 5 mps 758 mmHg 74%
    17:00 0°C° 0 mm 5 mps 759 mmHg 74%
    18:00 -1°C° 0 mm 6 mps 759 mmHg 73%
    19:00 -1°C° 0 mm 6 mps 759 mmHg 72%
    20:00 -1°C° 0 mm 6 mps 759 mmHg 71%
    21:00 -1°C° 0 mm 6 mps 759 mmHg 70%
    22:00 -1°C° 0 mm 6 mps 760 mmHg 72%
    23:00 +1°C° 0 mm 6 mps 760 mmHg 75%

    28 January, Saturday

    Time Temperature Precipitation Wind Pressure Humidity
    00:00 +1°C° 0 mm 6 mps 760 mmHg 77%
    01:00 +1°C° 0 mm 6 mps 760 mmHg 79%
    02:00 0°C° 0 mm 5 mps 760 mmHg 80%
    03:00 0°C° 0 mm 5 mps 760 mmHg 82%
    04:00 -1°C° 0 mm 6 mps 760 mmHg 81%
    05:00 -1°C° 0 mm 6 mps 761 mmHg 81%
    06:00 -1°C° 0 mm 6 mps 761 mmHg 81%
    07:00 +1°C° 0 mm 6 mps 761 mmHg 81%
    08:00 +1°C° 0 mm 6 mps 761 mmHg 82%
    09:00 +1°C° 0 mm 6 mps 762 mmHg 82%
    10:00 +2°C° 0 mm 6 mps 762 mmHg 83%
    11:00 +3°C° 0 mm 6 mps 762 mmHg 85%
    12:00 +4°C° 0 mm 6 mps 762 mmHg 87%
    13:00 +3°C° 0 mm 5 mps 762 mmHg 89%
    14:00 +3°C° 0 mm 5 mps 762 mmHg 91%
    15:00 +4°C° 0 mm 4 mps 762 mmHg 94%
    16:00 +3°C° 0 mm 4 mps 763 mmHg 95%
    17:00 +1°C° 0 mm 4 mps 763 mmHg 96%
    18:00 0°C° 0 mm 4 mps 764 mmHg 97%
    19:00 0°C° 0 mm 4 mps 764 mmHg 97%
    20:00 +1°C° 0 mm 3 mps 764 mmHg 97%
    21:00 +1°C° 0 mm 3 mps 765 mmHg 97%
    22:00 +1°C° 0 mm 3 mps 765 mmHg 97%
    23:00 +1°C° 0 mm 3 mps 765 mmHg 97%

    29 January, Sunday

    Time Temperature Precipitation Wind Pressure Humidity
    00:00 +1°C° 0 mm 3 mps 765 mmHg 97%
    01:00 +1°C° 0 mm 3 mps 766 mmHg 97%
    02:00 0°C° 0 mm 4 mps 766 mmHg 97%
    03:00 0°C° 0 mm 4 mps 766 mmHg 97%
    04:00 0°C° 0 mm 4 mps 766 mmHg 96%
    05:00 0°C° 0 mm 4 mps 766 mmHg 96%
    06:00 -1°C° 0 mm 4 mps 767 mmHg 96%
    07:00 0°C° 0 mm 4 mps 767 mmHg 95%
    08:00 0°C° 0 mm 4 mps 767 mmHg 95%
    09:00 0°C° 0 mm 4 mps 768 mmHg 94%
    10:00 +1°C° 0 mm 4 mps 767 mmHg 91%
    11:00 +3°C° 0 mm 4 mps 767 mmHg 89%
    12:00 +4°C° 0 mm 4 mps 767 mmHg 87%
    13:00 +4°C° 0 mm 4 mps 767 mmHg 88%
    14:00 +4°C° 0 mm 3 mps 767 mmHg 89%
    15:00 +4°C° 0 mm 3 mps 767 mmHg 91%
    16:00 +3°C° 0 mm 3 mps 767 mmHg 92%
    17:00 +2°C° 0 mm 3 mps 767 mmHg 93%
    18:00 0°C° 0 mm 4 mps 767 mmHg 94%
    19:00 0°C° 0 mm 4 mps 767 mmHg 94%
    20:00 0°C° 0 mm 4 mps 767 mmHg 94%
    21:00 0°C° 0 mm 4 mps 767 mmHg 94%
    22:00 0°C° 0 mm 4 mps 766 mmHg 93%
    23:00 0°C° 0 mm 4 mps 766 mmHg 93%
    Show more